Regional Weather Roundup
Issued by NWS

Home | Current Version | Previous Version | Graphics & Text | Print | Product List | Glossary Off
Versions: 1 2 3 4 5 6 7 8 9 10 11 12 13 14 15 16 17 18 19 20 21 22 23 24 25 26 27 28 29 30 31 32 33 34 35 36 37 38 39 40 41 42 43 44 45 46 47 48 49 50

000
ASUS43 KTOP 080159
RWRKS

WEATHER ROUNDUP FOR KANSAS
NATIONAL WEATHER SERVICE GOODLAND KS
800 PM CST SUN FEB 07 2016

NOTE:  "FAIR" INDICATES FEW OR NO CLOUDS BELOW 12,000 FEET WITH NO
SIGNIFICANT WEATHER AND/OR OBSTRUCTIONS TO VISIBILITY.

KSZ001>006-013>018-027>032-041>047-080300-
NORTHWEST KANSAS

CITY           SKY/WX    TMP DP  RH WIND       PRES   REMARKS
GOODLAND       CLOUDY    31  16  54 NW22G28   30.30R WCI  18
HAYS           CLEAR     37  16  41 NW23      30.22R WCI  26
HILL CITY      CLEAR     34  21  59 W15G24    30.23R WCI  24
RUSSELL        CLEAR     37  21  52 NW21G30   30.19R WCI  26
$$

KSZ061>065-074>080-084>089-080300-
SOUTHWEST KANSAS

CITY           SKY/WX    TMP DP  RH WIND       PRES   REMARKS
DODGE CITY     CLOUDY    37  14  38 NW21G28   30.28S WCI  26
ELKHART          N/A     32  12  43 NW8         N/A
GARDEN CITY    CLOUDY    37  15  40 NW16      30.30S WCI  28
GREAT BEND     CLEAR     36  19  51 NW15      30.22S WCI  26
LIBERAL        MOCLDY    36  12  38 NW10      30.35S WCI  28
$$

KSZ066>073-081>083-090>101-080300-
SOUTHEAST KANSAS

CITY           SKY/WX    TMP DP  RH WIND       PRES   REMARKS
CHANUTE        MOCLDY    44  16  32 NW14      30.10S
COFFEYVILLE    PTCLDY    43  14  31 NW8       30.12S
HUTCHINSON     CLEAR     39  20  46 NW15      30.18S WCI  31
MEDICINE LODGE   N/A     42  17  36 NW17G25   30.24R
NEWTON         CLEAR     37  19  48 W14G20    30.17S WCI  29
PARSONS        MOCLDY    43  16  33 NW9       30.12R
WICHITA INTL   CLEAR     41  22  46 W18       30.18R
WICHITA JABRA  CLEAR     40  21  46 W15       30.17R WCI  32
WINFIELD       CLEAR     43  22  43 NW15G23   30.19R
$$

KSZ007>012-019>026-033>040-048>060-102>105-080300-
NORTHEAST KANSAS

CITY           SKY/WX    TMP DP  RH WIND       PRES   REMARKS
CONCORDIA      CLEAR     38  21  50 NW16      30.11S WCI  29
EMPORIA        PTCLDY    41  20  43 NW12      30.10R
LAWRENCE       MOCLDY    40  26  57 NW31G45   30.07R WCI  28
MANHATTAN      CLOUDY    41  21  44 W8        30.11R
OLATHE IND     MOCLDY    39  24  55 NW17G31   30.06R WCI  30
OLATHE EXE     PTCLDY    39  24  55 NW23G31   30.05R WCI  28
SALINA         CLEAR     41  20  43 NW21      30.15R
TOPEKA BILLARD CLOUDY    41  24  51 NW13G22   30.08F
TOPEKA FORBES  CLOUDY    41  23  48 NW16      30.07F
$$



USA.gov is the U.S. government's official web portal to all federal, state and local government web resources and services.